Погода в Ташкенте

Погода в Ташкенте : погода сейчас, прогноз погоды и архив. Всё, что Вы хотите узнать о погоде в Ташкенте!

Хотите узнать прогноз погоды в Ташкенте? Тогда Вам сюда: Погода в Ташкенте

Поиск расширенной информации на нашем сайте:

Другие новости

Новости СМИ2

Главная страница сайта

Новости сайта

03.07.2017

Напоминаем, что на нашем специализированном сайте Метеоцентр.Азия вы можете получить высокодетализированные автоматические прогнозы погоды по пунктам России, СНГ и мира в авиационном формате (включающие направление и скорость ветра, видимость, явления погоды, количество и форму облачности, нижнюю и верхнюю границу облачности).

Рекомендуем: Трансфер в израиле israel4u.ru.

Погода в Ташкенте - сегодня

Время (UTC), дата Ветер
(°,м/с) 
Видим.   Явления Облачность Т
(°С)
Тd
(°С)
f(%) Тe
(°С)
Pmin
(гПа)
dP
(гПа)
Po
(мм)
O2
(г/м3)
Тmin Tmax R s Состояние
почвы
12 11.12.17 130 (ЮВ) 4000 м  дымка  8/0 верхняя 
[Ci fib]
+2.8 -1.7 72 +4  1024  -0.4  723  289           
15 11.12.17 160 (Ю) 10 км    ясно 
-0.1 -3.2 80 +1  1025.2  0.5  724  292    +6.6       
18 11.12.17 090 (В) 10 км    ясно 
-1.7 -3.9 85 -1  1025.4  -0.2  724  294    +6.6       
21 11.12.17 тихо ()   4000 м  дымка  10/10 200 м 
[St]
-1.5 -3 89 -2  1025.6  0.2  724  293           
00 12.12.17 130 (ЮВ) 4000 м  дымка  10/10 100 м 
[St]
-4.2 -5.4 91 -4  1026.9  0.6  724  297           
03 12.12.17 тихо ()   1000 м  дымка  10/10 100 м 
[St]
-6 -6.8 94 -6  1028.6  1.3  725  299           
06 12.12.17 170 (Ю) 1000 м  снежные зёрна  10/10 100 м 
[St]
-3.7 -5.2 89 -5  1029.2  726  297  -6         
09 12.12.17 тихо ()   4000 м  в посл. час морось{снег}  10/10 300 м 
[St]
-3.2 -4.6 90 -3  1029.1  726  296           
12 12.12.17 180 (Ю) 4000 м  дымка{снег}  10/10 300 м 
[St]
-3.2 -5.3 85 -3  1030.6  1.4  727  297           
15 12.12.17 тихо ()   4000 м  дымка  10/10 300 м 
[St]
-3.5 -5.3 87 -4  1031.6  1.2  728  298    -2.8       
18 12.12.17 180 (Ю) 4000 м  дымка  10/10 100 м 
[St]
-3.9 -5.4 89 -3  1032.3  0.6  728  298    -2.8  0.2     
21 12.12.17 080 (В) 1000 м  дымка  10/10 100 м 
[St]
-4.2 -5.4 91 -5  1032.4  728  298           
00 13.12.17 110 (В) 4000 м  дымка  4/4 600 м 
[Sc]
-4.5 -5.8 91 -4  1032.3  -0.1  728  299           
03 13.12.17 тихо ()   4000 м  дымка  ясно 
-5.4 -6.4 93 -5  1032.5  -0.1  728  300           
06 13.12.17 300 (СЗ) 2000 м  дымка  8/0 верхняя 
[Ci]
-2.8 -4.8 86 -2  1031.6  -0.2  728  297  -5.4         
09 13.12.17 280 (З) 4000 м  дымка  ясно 
+1 -3.6 71 1029.6  -1.1  727  292           
12 13.12.17 300 (СЗ) 4000 м  дымка  ясно 
-1.3 -3.6 84 -1  1030.1  727  295           
15 13.12.17 340 (С) 2000 м  дымка  ясно 
-4 -5.4 90 -4  1030.8  0.1  727  298    +1.9       
18 13.12.17 290 (З) 0050 м  туман  ?/?  
-4.6 -5.2 96 -4  1030.9  727  298    +1.9       
21 13.12.17 290 (З) 0050 м  туман  ?/?  
-4.6 -5.2 96 -4  1030.9  727  298           
00 14.12.17 330 (СЗ) 0050 м  туман  ?/?  
-5.2 -5.9 95 -5  1031.5  0.3  727  299           
03 14.12.17 340 (С) 0500 м  переохл. туман  ?/?  
-4.6 -5.2 96 -4  1031.9  0.6  728  299           
06 14.12.17 340 (С) 0500 м  переохл. туман  ?/?  
-4 -4.9 93 -4  1032.7  0.9  728  298  -5.6         
09 14.12.17 300 (СЗ) 4000 м  дымка{туман}  ясно 
-1.3 -3 88 -1  1031.1  -1  728  295           
12 14.12.17 030 (СВ) 2000 м  дымка{туман}  9/0 верхняя 
[Ci fib]
-4.8 -5.4 96 -4  1032.2  0.3  728  299           
Время (UTC), дата Ветер
(°,м/с) 
Видим.   Явления Облачность Т
(°С)
Тd
(°С)
f(%) Тe
(°С)
Pmin
(гПа)
dP
(гПа)
Po
(мм)
O2
(г/м3)
Тmin Tmax R s Состояние
почвы

Для получения пояснительной информации подведите курсор к названию столбца.

ПОГОДА в Ташкенте - архив

Всё, что Вы хотите узнать о погоде в Ташкенте - удобно и подробно!

Выберите нужную дату (начиная с 1 января 2015* года) и нажмите кнопку "Найти".
Будут отображены архивные сводки погоды по пункту Ташкент, начиная с указанной даты.


Отображать данные в формате CSV (для использования в таблицах Excel)


Внимание! Наш архив погоды предназначен исключительно для личного некоммерческого использования в познавательных целях. Если Вам необходимы официальные справки о состоянии погоды (для производственных, юридических, коммерческих и т.п. целей), обращайтесь в органы Росгидромета.

*Примечание: данная дата относится к архиву по метеостанциям СССР (Россия, СНГ, Балтия).
Архив по метеостанциям Зарубежной Европы и Азии (кроме Китая) хранится 10 дней, по другим регионам земного шара (Китай, Африка, Америка, Австралия, Океания) - 1 день.

Ташкент - район местоположения метеостанции


Название, широта, долгота, высота метеостанции:
Ташкент (город) 41.3°ш. 69.3°д. 488 м над ур. моря [Узбекистан]

Дополнительная информация

В oтличие oт бoльшинства пoгoдных сайтoв мы публикуем пoдрoбную метеoинфoрмацию в детальнoм прoфессиoнальнoм фoрмате.

Характеристики температуры и влажнoсти вoздуха измеряются на высoте 2 м в тени вдали oт зданий и деревьев.
Скoрoсть ветра измеряется на высoте 10 м (на урoвне рoста челoвека скoрoсть ветра ниже в 1.5-2 раза). Если метеoстанция нахoдится в гoрoде или в лесу, тo скoрoсть ветра занижена на 2-4 м/с пo сравнению с oткрытым местoм. Скoрoсть ветра над акватoриями крупных рек и oзёр, а также на вершинах хoлмoв на 2-5 м/с выше, чем в oбычных услoвиях.
Атмoсфернoе давление в разных тoчках местнoсти мoжет значительнo oтличаться oт давления на метеoстанции, в зависимoсти oт услoвий рельефа (при пoдъёме на 10 м давление пoнижается примернo на 1 мм рт.ст.).